Location: N�rnberg
(49.4471°N, 11.0632°E)
Time: 21:07:34
(UTC+02:00)

VELOX 1 - Pass Details

Date: 24 April 2026
Orbit: 569 x 580 km, 98.3° (Epoch: 13 May)

Event Time Altitude Azimuth Distance (km) Brightness Sun altitude
Rises 01:01:54 0° 11° (N) 2,785 ? -27.7°
Reaches altitude 10° 01:04:04 10° 7° (N) 1,883 ? -27.7°
Enters shadow 01:07:02 43° 343° (NNW) 805 ? -27.7°
